Mitchell, SD

3:05 AM CDT on August 25, 2016 (GMT -0500)
Mitchell Municipal

Weather History for KMHE - May, 2013

Change the Weather History Date:

Monday, May 13, 2013

  Actual Average Record
Temperature  
Mean Temperature 72 °F 59 °F  
Max Temperature 93 °F 70 °F 93 °F (2013)
Min Temperature 50 °F 47 °F 26 °F (1943)
Degree Days  
Heating Degree Days 0 7  
Month to date heating degree days 185 117  
Since 1 July heating degree days 7549 7117  
Cooling Degree Days 7 1  
Month to date cooling degree days 7 10  
Year to date cooling degree days 7 12  
Growing Degree Days 22 (Base 50)    
Moisture  
Dew Point 40 °F    
Average Humidity 38    
Maximum Humidity 59    
Minimum Humidity 16    
Precipitation  
Precipitation 0.00 in 0.07 in 4.60 in (1908)
Month to date precipitation 1.19 1.01  
Year to date precipitation 6.22 4.81  
Snow  
Snow 0.00 in - 0.00 in ()
Month to date snowfall 0.0  
Since 1 July snowfall 54.5  
Snow Depth 0.00 in    
Sea Level Pressure  
Sea Level Pressure 29.86 in    
Wind  
Wind Speed 12 mph (SSW)    
Max Wind Speed 22 mph    
Max Gust Speed 26 mph    
Visibility 10 miles    
Events      
T = Trace of Precipitation, MM = Missing Value Source: NWS Daily Summary

Daily Weather History Graph

Daily Weather History Graph

Search for Another Location

Airport or City:

Trip Planner

Search our weather history database for the weather conditions in past years. The results will help you decide how hot, cold, wet, or windy it might be!

Date:

Astronomy

May. 13, 2013 Rise Set
Actual Time 6:08 AM CDT 8:49 PM CDT
Civil Twilight 5:35 AM CDT 9:22 PM CDT
Nautical Twilight 4:54 AM CDT 10:03 PM CDT
Astronomical Twilight 4:06 AM CDT 10:51 PM CDT
Moon 8:55 AM CDT (5/13) 11:59 PM CDT (5/13)
Length of Visible Light 15h 46m
Length of Day
14h 40m
Waxing Crescent, 12% of the Moon is Illuminated
May 13
Waxing Crescent
May 17
First Quarter
May 24
Full
May 31
Last Quarter
Jun 8
New

Hourly Weather History & Observations

Time (CDT) Temp. Dew Point Humidity Pressure Visibility Wind Dir Wind Speed Gust Speed Precip Events Conditions
12:53 AM 53.1 °F 28.9 °F 40% 30.05 in 10.0 mi SSE 10.4 mph - N/A   Clear
1:53 AM 52.0 °F 27.0 °F 38% 30.04 in 10.0 mi SSE 13.8 mph - N/A   Clear
2:53 AM 53.1 °F 26.1 °F 35% 30.01 in 10.0 mi SSE 12.7 mph - N/A   Clear
3:53 AM 51.1 °F 28.0 °F 41% 29.99 in 10.0 mi SSE 11.5 mph - N/A   Clear
4:53 AM 51.1 °F 28.9 °F 43% 29.96 in 10.0 mi SSE 13.8 mph - N/A   Clear
5:53 AM 52.0 °F 33.1 °F 49% 29.95 in 10.0 mi SSE 15.0 mph - N/A   Scattered Clouds
6:53 AM 51.1 °F 36.0 °F 56% 29.94 in 10.0 mi SSE 15.0 mph - N/A   Clear
7:53 AM 54.0 °F 39.9 °F 59% 29.92 in 10.0 mi South 15.0 mph - N/A   Partly Cloudy
8:53 AM 57.9 °F 43.0 °F 58% 29.91 in 10.0 mi South 12.7 mph - N/A   Scattered Clouds
9:53 AM 63.0 °F 46.9 °F 56% 29.88 in 10.0 mi South 13.8 mph - N/A   Unknown
10:53 AM 69.1 °F 46.9 °F 45% 29.86 in 10.0 mi South 13.8 mph - N/A   Clear
11:53 AM 73.9 °F 48.9 °F 41% 29.84 in 10.0 mi SSW 15.0 mph - N/A   Clear
12:53 PM 80.1 °F 48.9 °F 34% 29.82 in 10.0 mi SW 11.5 mph - N/A   Clear
1:53 PM 84.9 °F 48.9 °F 29% 29.80 in 10.0 mi WSW 10.4 mph 16.1 mph N/A   Clear
3:53 PM 89.1 °F 46.9 °F 23% 29.75 in 10.0 mi West 10.4 mph - N/A   Clear
4:53 PM 91.9 °F 44.1 °F 19% 29.74 in 10.0 mi WNW 15.0 mph 26.5 mph N/A   Clear
5:53 PM 93.0 °F 41.0 °F 16% 29.73 in 10.0 mi NW 18.4 mph - N/A   Clear
7:53 PM 86.0 °F 44.1 °F 23% 29.73 in 10.0 mi NW 10.4 mph - N/A   Clear
8:53 PM 79.0 °F 44.1 °F 29% 29.74 in 10.0 mi WNW 6.9 mph - N/A   Clear
9:53 PM 75.9 °F 45.0 °F 33% 29.75 in 10.0 mi WSW 4.6 mph - N/A   Clear
10:53 PM 73.0 °F 46.0 °F 38% 29.75 in 10.0 mi SW 4.6 mph - N/A   Clear
11:53 PM 66.9 °F 46.9 °F 49% 29.73 in 10.0 mi Calm Calm - N/A   Clear